When you browse on this site, cookies collect data to enhance your experience and personalize the content and advertising you see.
Visit our Privacy Policy to learn more. By continuing to use the site, you agree to this use of cookies and data.
  • In United Kingdom
  • List of Countries
  • For 7 days
  • Water Temperature
  • Satellite Maps
  • Weather Map
  • Weather Widgets
  • user-avatar
    Login

    Hourly Weather Naru

    Today, 21 November, Wednesday

    Time Temperature Precipitation Wind Pressure Humidity
    00:00 +25°C° 0 mm 1 mps 743 mmHg 89%
    01:00 +24°C° 0 mm 1 mps 743 mmHg 92%
    02:00 +24°C° 0 mm 1 mps 743 mmHg 93%
    03:00 +24°C° 0 mm 1 mps 743 mmHg 93%
    04:00 +24°C° 0 mm 1 mps 743 mmHg 93%
    05:00 +24°C° 0 mm 1 mps 743 mmHg 91%
    06:00 +24°C° 0 mm 1 mps 744 mmHg 88%
    07:00 +25°C° 0 mm 1 mps 744 mmHg 83%
    08:00 +28°C° 0 mm 1 mps 744 mmHg 72%
    09:00 +31°C° 0 mm 1 mps 744 mmHg 60%
    10:00 +34°C° 0 mm 1 mps 745 mmHg 48%
    11:00 +35°C° 0 mm 1 mps 744 mmHg 44%
    12:00 +36°C° 0 mm 1 mps 744 mmHg 40%
    13:00 +37°C° 0 mm 2 mps 743 mmHg 39%
    14:00 +36°C° 0 mm 2 mps 743 mmHg 42%
    15:00 +36°C° 0 mm 2 mps 742 mmHg 44%
    16:00 +35°C° 0 mm 2 mps 742 mmHg 46%
    17:00 +32°C° 0 mm 2 mps 742 mmHg 54%
    18:00 +30°C° 0 mm 2 mps 743 mmHg 62%
    19:00 +28°C° 0 mm 2 mps 743 mmHg 69%
    20:00 +27°C° 0 mm 2 mps 744 mmHg 74%
    21:00 +26°C° 0 mm 2 mps 744 mmHg 78%
    22:00 +25°C° 0 mm 2 mps 745 mmHg 82%
    23:00 +25°C° 0 mm 2 mps 745 mmHg 84%

    Tomorrow, 22 November, Thursday

    Time Temperature Precipitation Wind Pressure Humidity
    00:00 +25°C° 0 mm 2 mps 745 mmHg 86%
    01:00 +25°C° 0 mm 2 mps 745 mmHg 88%
    02:00 +25°C° 0 mm 2 mps 744 mmHg 88%
    03:00 +25°C° 0 mm 2 mps 744 mmHg 88%
    04:00 +25°C° 0 mm 2 mps 744 mmHg 87%
    05:00 +25°C° 0.1 mm 2 mps 745 mmHg 85%
    06:00 +25°C° 0.1 mm 2 mps 745 mmHg 83%
    07:00 +25°C° 0.1 mm 2 mps 746 mmHg 81%
    08:00 +26°C° 0 mm 3 mps 746 mmHg 74%
    09:00 +28°C° 0 mm 4 mps 746 mmHg 66%
    10:00 +29°C° 0 mm 5 mps 747 mmHg 59%
    11:00 +29°C° 0 mm 4 mps 746 mmHg 58%
    12:00 +29°C° 0 mm 4 mps 746 mmHg 57%
    13:00 +29°C° 0 mm 4 mps 745 mmHg 55%
    14:00 +28°C° 0 mm 4 mps 745 mmHg 58%
    15:00 +27°C° 0 mm 4 mps 745 mmHg 61%
    16:00 +26°C° 0 mm 3 mps 745 mmHg 64%
    17:00 +25°C° 0 mm 3 mps 745 mmHg 67%
    18:00 +24°C° 0 mm 3 mps 745 mmHg 70%
    19:00 +22°C° 0 mm 3 mps 746 mmHg 73%
    20:00 +22°C° 0 mm 3 mps 746 mmHg 75%
    21:00 +22°C° 0 mm 3 mps 746 mmHg 76%
    22:00 +21°C° 0 mm 2 mps 747 mmHg 77%
    23:00 +21°C° 0 mm 2 mps 747 mmHg 79%

    Day after tomorrow, 23 November, Friday

    Time Temperature Precipitation Wind Pressure Humidity
    00:00 +21°C° 0 mm 2 mps 746 mmHg 81%
    01:00 +21°C° 0 mm 2 mps 746 mmHg 82%
    02:00 +21°C° 0 mm 2 mps 746 mmHg 83%
    03:00 +20°C° 0 mm 2 mps 746 mmHg 84%
    04:00 +20°C° 0 mm 2 mps 745 mmHg 85%
    05:00 +21°C° 0 mm 2 mps 746 mmHg 84%
    06:00 +21°C° 0 mm 2 mps 746 mmHg 82%
    07:00 +23°C° 0 mm 2 mps 746 mmHg 81%
    08:00 +25°C° 0 mm 3 mps 747 mmHg 73%
    09:00 +27°C° 0 mm 3 mps 747 mmHg 65%
    10:00 +29°C° 0 mm 4 mps 747 mmHg 57%
    11:00 +30°C° 0 mm 4 mps 746 mmHg 54%
    12:00 +30°C° 0 mm 4 mps 746 mmHg 52%
    13:00 +32°C° 0 mm 4 mps 745 mmHg 50%
    14:00 +30°C° 0 mm 4 mps 745 mmHg 54%
    15:00 +29°C° 0 mm 4 mps 744 mmHg 57%
    16:00 +28°C° 0 mm 3 mps 744 mmHg 61%
    17:00 +26°C° 0 mm 3 mps 744 mmHg 67%
    18:00 +25°C° 0 mm 2 mps 745 mmHg 73%
    19:00 +23°C° 0 mm 2 mps 746 mmHg 79%
    20:00 +23°C° 0 mm 2 mps 746 mmHg 82%
    21:00 +22°C° 0 mm 1 mps 746 mmHg 85%
    22:00 +22°C° 0 mm 1 mps 746 mmHg 88%
    23:00 +22°C° 0 mm 1 mps 746 mmHg 89%

    24 November, Saturday

    Time Temperature Precipitation Wind Pressure Humidity
    00:00 +21°C° 0 mm 1 mps 745 mmHg 90%
    01:00 +21°C° 0 mm 1 mps 745 mmHg 92%
    02:00 +21°C° 0 mm 1 mps 745 mmHg 92%
    03:00 +21°C° 0 mm 1 mps 744 mmHg 93%
    04:00 +21°C° 0 mm 1 mps 744 mmHg 94%
    05:00 +21°C° 0 mm 1 mps 744 mmHg 92%
    06:00 +22°C° 0 mm 1 mps 745 mmHg 90%
    07:00 +21°C° 0 mm 2 mps 745 mmHg 88%
    08:00 +24°C° 0 mm 2 mps 745 mmHg 79%
    09:00 +27°C° 0 mm 3 mps 746 mmHg 70%
    10:00 +29°C° 0 mm 3 mps 746 mmHg 61%
    11:00 +29°C° 0 mm 3 mps 745 mmHg 58%
    12:00 +30°C° 0 mm 3 mps 744 mmHg 55%
    13:00 +31°C° 0 mm 3 mps 744 mmHg 53%
    14:00 +30°C° 0 mm 3 mps 743 mmHg 55%
    15:00 +29°C° 0 mm 3 mps 743 mmHg 58%
    16:00 +29°C° 0 mm 3 mps 742 mmHg 60%
    17:00 +27°C° 0 mm 3 mps 743 mmHg 66%
    18:00 +26°C° 0 mm 3 mps 744 mmHg 72%
    19:00 +24°C° 0 mm 2 mps 744 mmHg 78%
    20:00 +24°C° 0 mm 2 mps 744 mmHg 79%
    21:00 +23°C° 0 mm 2 mps 745 mmHg 80%
    22:00 +23°C° 0 mm 2 mps 745 mmHg 81%
    23:00 +23°C° 0 mm 2 mps 744 mmHg 80%

    25 November, Sunday

    Time Temperature Precipitation Wind Pressure Humidity
    00:00 +24°C° 0 mm 2 mps 744 mmHg 79%
    01:00 +24°C° 0 mm 2 mps 743 mmHg 78%
    02:00 +24°C° 0.1 mm 2 mps 743 mmHg 79%
    03:00 +24°C° 0.1 mm 2 mps 743 mmHg 80%
    04:00 +24°C° 0.1 mm 2 mps 742 mmHg 81%
    05:00 +24°C° 0 mm 2 mps 743 mmHg 80%
    06:00 +24°C° 0 mm 3 mps 743 mmHg 78%
    07:00 +25°C° 0 mm 3 mps 744 mmHg 77%
    08:00 +25°C° 0 mm 3 mps 744 mmHg 75%
    09:00 +26°C° 0 mm 3 mps 744 mmHg 74%
    10:00 +26°C° 0 mm 4 mps 745 mmHg 73%
    11:00 +26°C° 0 mm 4 mps 744 mmHg 71%
    12:00 +27°C° 0 mm 4 mps 743 mmHg 70%
    13:00 +27°C° 0 mm 5 mps 743 mmHg 68%
    14:00 +27°C° 0.1 mm 5 mps 742 mmHg 69%
    15:00 +27°C° 0.1 mm 5 mps 742 mmHg 69%
    16:00 +26°C° 0.1 mm 5 mps 742 mmHg 70%
    17:00 +26°C° 0 mm 5 mps 742 mmHg 70%
    18:00 +25°C° 0 mm 4 mps 743 mmHg 71%
    19:00 +23°C° 0 mm 4 mps 743 mmHg 72%
    20:00 +23°C° 0 mm 4 mps 744 mmHg 72%
    21:00 +23°C° 0 mm 4 mps 744 mmHg 72%
    22:00 +24°C° 0 mm 3 mps 744 mmHg 73%
    23:00 +24°C° 0 mm 3 mps 744 mmHg 73%

    26 November, Monday

    Time Temperature Precipitation Wind Pressure Humidity
    00:00 +22°C° 0 mm 3 mps 743 mmHg 74%
    01:00 +22°C° 0 mm 3 mps 743 mmHg 75%
    02:00 +22°C° 0.1 mm 3 mps 743 mmHg 75%
    03:00 +22°C° 0.1 mm 3 mps 743 mmHg 76%
    04:00 +22°C° 0.1 mm 3 mps 743 mmHg 76%
    05:00 +22°C° 0.1 mm 3 mps 743 mmHg 76%
    06:00 +22°C° 0.1 mm 3 mps 744 mmHg 76%
    07:00 +22°C° 0.1 mm 3 mps 744 mmHg 76%
    08:00 +24°C° 0 mm 3 mps 745 mmHg 73%
    09:00 +23°C° 0 mm 4 mps 745 mmHg 70%
    10:00 +25°C° 0 mm 4 mps 745 mmHg 67%
    11:00 +25°C° 0 mm 4 mps 745 mmHg 67%
    12:00 +25°C° 0 mm 4 mps 744 mmHg 67%
    13:00 +26°C° 0 mm 3 mps 743 mmHg 66%
    14:00 +25°C° 0 mm 3 mps 743 mmHg 67%
    15:00 +25°C° 0 mm 3 mps 743 mmHg 68%
    16:00 +25°C° 0 mm 3 mps 743 mmHg 69%
    17:00 +25°C° 0.1 mm 3 mps 744 mmHg 69%
    18:00 +24°C° 0.1 mm 3 mps 745 mmHg 70%
    19:00 +24°C° 0.1 mm 3 mps 745 mmHg 70%
    20:00 +24°C° 0.1 mm 3 mps 745 mmHg 70%
    21:00 +24°C° 0.1 mm 3 mps 745 mmHg 71%
    22:00 +24°C° 0.1 mm 3 mps 746 mmHg 72%
    23:00 +24°C° 0 mm 2 mps 745 mmHg 73%
    Show more